Weather History for Clarksville, TX

Change the Weather History Date:

Tuesday, November 20, 2012

  Actual Average (KPRX) Record (KPRX)
Temperature  
Mean Temperature 64 °F -  
Max Temperature 77 °F 61 °F 80 °F (2011)
Min Temperature 50 °F 42 °F 24 °F (2008)
Degree Days  
Heating Degree Days 2    
Growing Degree Days 14 (Base 50)    
Moisture  
Dew Point 47 °F    
Average Humidity 57    
Maximum Humidity 82    
Minimum Humidity 34    
Precipitation  
Precipitation 0.00 in - - ()
Sea Level Pressure  
Sea Level Pressure 30.18 in    
Wind  
Wind Speed 1 mph (NW)    
Max Wind Speed 5 mph    
Max Gust Speed -    
Visibility 10 miles    
Events      
Averages and records for this station are not official NWS values.
T = Trace of Precipitation, MM = Missing Value Source: NWS Daily Summary

Daily Weather History Graph

Daily Weather History Graph

Search for Another Location

Airport:

Trip Planner

Search our weather history database for the weather conditions in past years. The results will help you decide how hot, cold, wet, or windy it might be!

Date:

Astronomy

Nov. 20, 2012 Rise Set
Actual Time 6:57 AM CST 5:14 PM CST
Civil Twilight 6:30 AM CST 5:41 PM CST
Nautical Twilight 6:00 AM CST 6:11 PM CST
Astronomical Twilight 5:30 AM CST 6:41 PM CST
Moon 12:41 PM CST (11/20) No Moon Set
Length of Visible Light 11h 11m
Length of Day
10h 17m
First Quarter, 51% of the Moon is Illuminated
Nov 20
First Quarter
Nov 28
Full
Dec 6
Last Quarter
Dec 13
New
Dec 19
First Quarter

Hourly Weather History & Observations

Time (CST) Temp. Dew Point Humidity Pressure Visibility Wind Dir Wind Speed Gust Speed Precip Events Conditions
12:15 AM 60.8 °F 42.8 °F 52% 30.17 in 10.0 mi East 3.5 mph - N/A   Scattered Clouds
12:35 AM 60.8 °F 42.8 °F 52% 30.17 in 10.0 mi Calm Calm - N/A   Scattered Clouds
12:55 AM 60.8 °F 42.8 °F 52% 30.17 in 10.0 mi Calm Calm - N/A   Mostly Cloudy
1:15 AM 60.8 °F 42.8 °F 52% 30.16 in 10.0 mi Calm Calm - N/A   Mostly Cloudy
1:35 AM 60.8 °F 42.8 °F 52% 30.16 in 10.0 mi Calm Calm - N/A   Mostly Cloudy
1:55 AM 60.8 °F 42.8 °F 52% 30.16 in 10.0 mi Calm Calm - N/A   Mostly Cloudy
2:15 AM 60.8 °F 42.8 °F 52% 30.16 in 10.0 mi Calm Calm - N/A   Mostly Cloudy
2:35 AM 59.0 °F 42.8 °F 55% 30.17 in 10.0 mi Calm Calm - N/A   Mostly Cloudy
6:15 AM 51.8 °F 42.8 °F 71% 30.18 in 10.0 mi ENE 3.5 mph - N/A   Clear
6:35 AM 50.0 °F 42.8 °F 76% 30.18 in 10.0 mi Calm Calm - N/A   Scattered Clouds
6:55 AM 50.0 °F 42.8 °F 76% 30.19 in 10.0 mi Calm Calm - N/A   Mostly Cloudy
7:15 AM 50.0 °F 42.8 °F 76% 30.19 in 10.0 mi Calm Calm - N/A   Mostly Cloudy
7:35 AM 50.0 °F 42.8 °F 76% 30.20 in 10.0 mi Calm Calm - N/A   Scattered Clouds
7:55 AM 51.8 °F 42.8 °F 71% 30.20 in 10.0 mi Calm Calm - N/A   Clear
8:15 AM 55.4 °F 44.6 °F 67% 30.21 in 10.0 mi Calm Calm - N/A   Clear
8:35 AM 60.8 °F 44.6 °F 55% 30.22 in 10.0 mi Calm Calm - N/A   Scattered Clouds
8:55 AM 62.6 °F 42.8 °F 48% 30.22 in 10.0 mi ESE 3.5 mph - N/A   Scattered Clouds
9:15 AM 62.6 °F 42.8 °F 48% 30.22 in 7.0 mi Calm Calm - N/A   Clear
9:35 AM 62.6 °F 42.8 °F 48% 30.22 in 10.0 mi Calm Calm - N/A   Clear
9:55 AM 64.4 °F 42.8 °F 45% 30.22 in 10.0 mi Calm Calm - N/A   Clear
10:15 AM 68.0 °F 44.6 °F 43% 30.22 in 10.0 mi Calm Calm - N/A   Clear
10:35 AM 68.0 °F 44.6 °F 43% 30.22 in 10.0 mi Calm Calm - N/A   Clear
10:55 AM 69.8 °F 44.6 °F 40% 30.21 in 7.0 mi Calm Calm - N/A   Clear
11:15 AM 71.6 °F 46.4 °F 41% 30.21 in 10.0 mi Calm Calm - N/A   Clear
11:35 AM 73.4 °F 50.0 °F 44% 30.20 in 10.0 mi Calm Calm - N/A   Clear
11:55 AM 73.4 °F 50.0 °F 44% 30.18 in 10.0 mi Calm Calm - N/A   Clear
12:15 PM 73.4 °F 51.8 °F 47% 30.18 in 10.0 mi Calm Calm - N/A   Clear
12:35 PM 75.2 °F 51.8 °F 44% 30.16 in 10.0 mi Calm Calm - N/A   Clear
12:55 PM 75.2 °F 50.0 °F 41% 30.16 in 7.0 mi Calm Calm - N/A   Clear
1:15 PM 77.0 °F 50.0 °F 39% 30.16 in 10.0 mi WNW 3.5 mph - N/A   Clear
1:35 PM 77.0 °F 50.0 °F 39% 30.15 in 7.0 mi Calm Calm - N/A   Clear
2:15 PM 77.0 °F 50.0 °F 39% 30.13 in 10.0 mi West 3.5 mph - N/A   Clear
2:35 PM 77.0 °F 50.0 °F 39% 30.13 in 10.0 mi SW 3.5 mph - N/A   Clear
2:55 PM 77.0 °F 50.0 °F 39% 30.13 in 7.0 mi Calm Calm - N/A   Clear
3:15 PM 77.0 °F 48.2 °F 36% 30.12 in 10.0 mi WSW 3.5 mph - N/A   Clear
3:35 PM 77.0 °F 46.4 °F 34% 30.13 in 10.0 mi Calm Calm - N/A   Clear
3:55 PM 77.0 °F 48.2 °F 36% 30.13 in 10.0 mi Calm Calm - N/A   Clear
4:15 PM 77.0 °F 50.0 °F 39% 30.13 in 10.0 mi Calm Calm - N/A   Clear
4:35 PM 77.0 °F 50.0 °F 39% 30.13 in 10.0 mi Calm Calm - N/A   Clear
4:55 PM 73.4 °F 50.0 °F 44% 30.13 in 7.0 mi Calm Calm - N/A   Clear
5:15 PM 73.4 °F 50.0 °F 44% 30.13 in 10.0 mi Calm Calm - N/A   Clear
5:35 PM 69.8 °F 50.0 °F 49% 30.13 in 10.0 mi Calm Calm - N/A   Clear
5:55 PM 68.0 °F 50.0 °F 52% 30.14 in 10.0 mi Calm Calm - N/A   Clear
6:15 PM 64.4 °F 50.0 °F 59% 30.14 in 10.0 mi Calm Calm - N/A   Clear
6:35 PM 62.6 °F 50.0 °F 63% 30.16 in 10.0 mi Calm Calm - N/A   Clear
6:55 PM 62.6 °F 50.0 °F 63% 30.16 in 10.0 mi Calm Calm - N/A   Clear
7:15 PM 59.0 °F 50.0 °F 72% 30.16 in 10.0 mi Calm Calm - N/A   Clear
7:35 PM 59.0 °F 50.0 °F 72% 30.17 in 10.0 mi Calm Calm - N/A   Clear
7:55 PM 57.2 °F 48.2 °F 72% 30.18 in 7.0 mi Calm Calm - N/A   Clear
8:15 PM 55.4 °F 48.2 °F 77% 30.18 in 10.0 mi Calm Calm - N/A   Clear
8:35 PM 55.4 °F 48.2 °F 77% 30.19 in 7.0 mi Calm Calm - N/A   Clear
8:55 PM 55.4 °F 48.2 °F 77% 30.19 in 7.0 mi Calm Calm - N/A   Clear
9:15 PM 53.6 °F 46.4 °F 77% 30.19 in 10.0 mi Calm Calm - N/A   Clear
9:35 PM 53.6 °F 46.4 °F 77% 30.19 in 10.0 mi North 4.6 mph - N/A   Clear
9:55 PM 55.4 °F 48.2 °F 77% 30.19 in 10.0 mi Calm Calm - N/A   Clear
10:15 PM 53.6 °F 46.4 °F 77% 30.20 in 10.0 mi Calm Calm - N/A   Clear
10:35 PM 51.8 °F 46.4 °F 82% 30.20 in 10.0 mi Calm Calm - N/A   Clear
10:55 PM 51.8 °F 46.4 °F 82% 30.20 in 10.0 mi NW 3.5 mph - N/A   Clear
11:15 PM 50.0 °F 44.6 °F 82% 30.20 in 10.0 mi NW 3.5 mph - N/A   Clear
11:35 PM 51.8 °F 46.4 °F 82% 30.20 in 10.0 mi NNW 3.5 mph - N/A   Clear
11:55 PM 53.6 °F 48.2 °F 82% 30.20 in 10.0 mi NNW 4.6 mph - N/A   Clear